Location: Martin
(32.0982°N, 93.2193°W)
Time: 17:26:05
(UTC+00:00)

ARIANE 6 FM1 Upper Stage - Pass Details

Date: 20 September 2024
Orbit: 563 x 595 km, 62.0° (Epoch: 12 October)

Event Time Altitude Azimuth Distance (km) Brightness Sun altitude
Rises 00:31:30 0° 171° (S) 2,750 6.1 -4.8°
Reaches altitude 10° 00:34:28 10° 149° (SSE) 1,864 5.0 -5.4°
Maximum altitude 00:36:58 16° 112° (ESE) 1,548 4.3 -6.0°
Drops below altitude 10° 00:39:30 10° 75° (ENE) 1,884 4.8 -6.5°
Enters shadow 00:41:49 - 57° (ENE) 2,562 5.6 -7.0°
